Terug naar catalogus

USA 442

ActiefMilitairVLEO
NORAD 62341·PAYLOAD·🇺🇸 United States

Gelanceerd Dec 17, 2024 vanaf Vandenberg Space Force Base

Loading…

Volgende Passages (komende 24 uur)

TLE

VerouderdSource: Mike McCants

Epoch: Aug 12, 2026, 22:24 UTC

1 62341U 24243B   26224.93351613 0.00000000  00000-0  00000-0 0    01
2 62341  70.0220 154.5568 0003000 139.2495 220.7505 14.96713063    00

Volg USA 442 in realtime met AllMySat

Download on the App Store